Weather History for Madisonville, KY

Change the Weather History Date:

Monday, December 10, 2012

  Actual Average (KOWB) Record (KOWB)
Temperature  
Mean Temperature 43 °F -  
Max Temperature 53 °F 47 °F 69 °F (1971)
Min Temperature 33 °F 30 °F 5 °F (1977)
Degree Days  
Heating Degree Days 22    
Moisture  
Dew Point 36 °F    
Average Humidity 87    
Maximum Humidity 99    
Minimum Humidity 76    
Precipitation  
Precipitation 0.00 in - - ()
Sea Level Pressure  
Sea Level Pressure 29.89 in    
Wind  
Wind Speed 11 mph (NNW)    
Max Wind Speed 21 mph    
Max Gust Speed 33 mph    
Visibility 10 miles    
Events Rain    
Averages and records for this station are not official NWS values.
T = Trace of Precipitation, MM = Missing Value Source: NWS Daily Summary

Daily Weather History Graph

Daily Weather History Graph

Search for Another Location

Airport:

Trip Planner

Search our weather history database for the weather conditions in past years. The results will help you decide how hot, cold, wet, or windy it might be!

Date:

Astronomy

Dec. 10, 2012 Rise Set
Actual Time 6:53 AM CST 4:31 PM CST
Civil Twilight 6:24 AM CST 5:01 PM CST
Nautical Twilight 5:51 AM CST 5:33 PM CST
Astronomical Twilight 5:19 AM CST 6:05 PM CST
Moon 3:38 AM CST (12/10) 2:18 PM CST (12/10)
Length of Visible Light 10h 36m
Length of Day
9h 38m
Waning Crescent, 10% of the Moon is Illuminated
Dec 10
Waning Crescent
Dec 13
New
Dec 19
First Quarter
Dec 28
Full
Jan 4
Last Quarter

Hourly Weather History & Observations

Time (CST) Temp. Windchill Dew Point Humidity Pressure Visibility Wind Dir Wind Speed Gust Speed Precip Events Conditions
12:15 AM 53.6 °F - 52.2 °F 95% 29.81 in 7.0 mi NW 12.7 mph - N/A   Overcast
12:35 AM 52.5 °F - 51.4 °F 96% 29.75 in 7.0 mi NNE 9.2 mph - N/A Rain Rain
12:55 AM 51.4 °F - 50.2 °F 95% 29.80 in 7.0 mi NNW 12.7 mph 19.6 mph N/A   Light Drizzle
1:15 AM 50.9 °F - 50.0 °F 97% 29.80 in 7.0 mi NNW 10.4 mph 17.3 mph N/A   Overcast
1:35 AM 49.8 °F - 49.3 °F 98% 29.80 in 5.0 mi North 16.1 mph 23.0 mph N/A   Overcast
1:55 AM 48.7 °F - 48.4 °F 99% 29.79 in 5.0 mi North 15.0 mph 19.6 mph N/A   Overcast
2:15 AM 48.4 °F - 47.7 °F 97% 29.80 in 7.0 mi NNW 11.5 mph - N/A   Overcast
2:55 AM 47.3 °F - 46.4 °F 97% 29.80 in 7.0 mi North 12.7 mph - N/A   Overcast
3:15 AM 46.8 °F - 45.1 °F 94% 29.80 in 10.0 mi North 16.1 mph 20.7 mph N/A   Overcast
3:35 AM 46.4 °F 39.8 °F 44.1 °F 92% 29.81 in 10.0 mi North 16.1 mph 21.9 mph N/A   Overcast
3:55 AM 46.0 °F 41.0 °F 43.2 °F 90% 29.81 in 10.0 mi NNW 10.4 mph 16.1 mph N/A   Overcast
4:15 AM 45.9 °F 39.7 °F 42.3 °F 87% 29.80 in 10.0 mi North 13.8 mph 18.4 mph N/A   Overcast
4:35 AM 45.7 °F 39.8 °F 40.5 °F 82% 29.80 in 10.0 mi North 12.7 mph - N/A   Overcast
4:55 AM 45.5 °F 40.3 °F 40.5 °F 83% 29.80 in 10.0 mi North 10.4 mph - N/A   Overcast
5:15 AM 45.3 °F 40.6 °F 39.9 °F 81% 29.80 in 10.0 mi North 9.2 mph - N/A   Overcast
5:35 AM 45.1 °F 40.3 °F 39.6 °F 81% 29.81 in 10.0 mi North 9.2 mph - N/A   Overcast
6:15 AM 44.8 °F 39.9 °F 39.9 °F 83% 29.81 in 10.0 mi NNW 9.2 mph - N/A   Overcast
6:35 AM 44.8 °F 39.4 °F 39.7 °F 82% 29.82 in 10.0 mi NNW 10.4 mph - N/A   Overcast
6:55 AM 44.6 °F 40.2 °F 40.1 °F 84% 29.81 in 10.0 mi NNW 8.1 mph 16.1 mph N/A   Overcast
7:15 AM 44.6 °F 38.8 °F 40.1 °F 84% 29.82 in 10.0 mi North 11.5 mph - N/A   Overcast
7:35 AM 44.6 °F 42.2 °F 40.5 °F 85% 29.81 in 10.0 mi NNW 4.6 mph - N/A   Overcast
7:55 AM 44.6 °F 40.2 °F 40.5 °F 85% 29.82 in 10.0 mi NNW 8.1 mph 21.9 mph N/A   Overcast
8:15 AM 44.6 °F 41.4 °F 40.5 °F 85% 29.82 in 10.0 mi NNW 5.8 mph - N/A   Overcast
8:35 AM 43.0 °F 37.2 °F 39.4 °F 87% 29.83 in 10.0 mi NW 10.4 mph 24.2 mph N/A   Overcast
8:55 AM 41.9 °F 33.7 °F 37.8 °F 85% 29.83 in 10.0 mi NNW 17.3 mph 27.6 mph N/A   Overcast
9:15 AM 41.5 °F 34.2 °F 38.1 °F 88% 29.85 in 10.0 mi NNW 13.8 mph 19.6 mph N/A   Overcast
9:35 AM 41.0 °F 33.5 °F 37.8 °F 88% 29.85 in 10.0 mi NW 13.8 mph 20.7 mph N/A   Overcast
9:55 AM 39.6 °F 29.7 °F 36.7 °F 89% 29.87 in 10.0 mi NNW 20.7 mph 33.4 mph N/A   Overcast
10:15 AM 39.0 °F 31.4 °F 36.5 °F 91% 29.86 in 10.0 mi NW 12.7 mph 19.6 mph N/A   Overcast
10:35 AM 37.8 °F 29.8 °F 35.4 °F 91% 29.88 in 10.0 mi NNW 12.7 mph 20.7 mph N/A   Overcast
10:55 AM 36.7 °F 27.2 °F 33.4 °F 88% 29.88 in 10.0 mi NNW 16.1 mph 23.0 mph N/A   Overcast
11:15 AM 36.0 °F 28.5 °F 32.7 °F 88% 29.88 in 10.0 mi NNW 10.4 mph 16.1 mph N/A   Overcast
11:35 AM 35.8 °F 28.3 °F 32.5 °F 88% 29.87 in 10.0 mi NNW 10.4 mph - N/A   Overcast
11:55 AM 35.6 °F 28.0 °F 32.2 °F 87% 29.86 in 10.0 mi NNW 10.4 mph 18.4 mph N/A   Overcast
12:15 PM 36.1 °F 28.7 °F 32.4 °F 86% 29.86 in 10.0 mi NNW 10.4 mph 19.6 mph N/A   Overcast
12:35 PM 36.0 °F 27.5 °F 32.2 °F 86% 29.87 in 10.0 mi NNW 12.7 mph 17.3 mph N/A   Overcast
12:55 PM 35.1 °F 25.9 °F 32.0 °F 89% 29.87 in 10.0 mi NNW 13.8 mph 19.6 mph N/A   Overcast
1:15 PM 34.9 °F 25.3 °F 31.6 °F 88% 29.87 in 10.0 mi NNW 15.0 mph 19.6 mph N/A   Overcast
1:35 PM 34.7 °F 26.4 °F 30.9 °F 86% 29.87 in 10.0 mi NW 11.5 mph 18.4 mph N/A   Overcast
1:55 PM 34.5 °F 26.7 °F 31.3 °F 88% 29.87 in 10.0 mi North 10.4 mph - N/A   Overcast
2:15 PM 34.9 °F 28.3 °F 31.5 °F 87% 29.87 in 10.0 mi NNW 8.1 mph - N/A   Overcast
2:35 PM 34.7 °F 28.1 °F 30.6 °F 85% 29.88 in 10.0 mi NNW 8.1 mph - N/A   Overcast
2:55 PM 34.7 °F 26.9 °F 31.1 °F 87% 29.88 in 10.0 mi NNW 10.4 mph - N/A   Overcast
3:15 PM 34.7 °F 27.5 °F 30.6 °F 85% 29.88 in 10.0 mi North 9.2 mph - N/A   Overcast
3:35 PM 34.7 °F 28.1 °F 30.6 °F 85% 29.89 in 10.0 mi NNW 8.1 mph - N/A   Overcast
3:55 PM 34.7 °F 25.9 °F 31.1 °F 87% 29.90 in 10.0 mi NW 12.7 mph - N/A   Overcast
4:15 PM 34.2 °F 26.2 °F 30.7 °F 87% 29.91 in 10.0 mi NNW 10.4 mph 16.1 mph N/A   Overcast
4:35 PM 34.3 °F 27.7 °F 30.6 °F 86% 29.92 in 10.0 mi NNW 8.1 mph - N/A   Overcast
4:55 PM 34.3 °F 25.9 °F 30.2 °F 85% 29.93 in 10.0 mi NW 11.5 mph - N/A   Overcast
5:15 PM 34.2 °F 25.7 °F 30.0 °F 85% 29.94 in 10.0 mi NNW 11.5 mph - N/A   Overcast
5:35 PM 34.2 °F 26.8 °F 29.8 °F 84% 29.96 in 10.0 mi NW 9.2 mph 17.3 mph N/A   Overcast
5:55 PM 34.0 °F 27.2 °F 29.8 °F 85% 29.97 in 10.0 mi NW 8.1 mph 21.9 mph N/A   Overcast
6:35 PM 34.2 °F 26.2 °F 30.2 °F 85% 29.98 in 10.0 mi NNW 10.4 mph - N/A   Overcast
6:55 PM 34.2 °F 27.5 °F 30.2 °F 85% 30.00 in 10.0 mi NW 8.1 mph - N/A   Overcast
7:15 PM 34.0 °F 26.6 °F 30.6 °F 87% 30.01 in 10.0 mi NW 9.2 mph - N/A   Overcast
7:35 PM 33.8 °F 26.4 °F 30.0 °F 86% 30.00 in 10.0 mi NNW 9.2 mph - N/A   Overcast
7:55 PM 33.8 °F 27.0 °F 30.0 °F 86% 30.01 in 10.0 mi NW 8.1 mph - N/A   Overcast
8:15 PM 33.6 °F 27.5 °F 29.5 °F 85% 30.02 in 10.0 mi NW 6.9 mph - N/A   Overcast
8:35 PM 33.8 °F 29.6 °F 30.0 °F 86% 30.02 in 10.0 mi NW 4.6 mph - N/A   Overcast
8:55 PM 33.8 °F 27.0 °F 30.0 °F 86% 30.03 in 10.0 mi NW 8.1 mph - N/A   Overcast
9:15 PM 33.8 °F 29.6 °F 30.0 °F 86% 30.03 in 10.0 mi NW 4.6 mph - N/A   Overcast
9:35 PM 33.8 °F 27.0 °F 30.0 °F 86% 30.03 in 10.0 mi NW 8.1 mph - N/A   Overcast
9:55 PM 33.8 °F 27.7 °F 30.0 °F 86% 30.04 in 10.0 mi NW 6.9 mph - N/A   Overcast
10:15 PM 33.8 °F 29.6 °F 30.2 °F 87% 30.04 in 10.0 mi NW 4.6 mph - N/A   Overcast
10:35 PM 33.6 °F 26.8 °F 29.8 °F 86% 30.04 in 10.0 mi NW 8.1 mph - N/A   Overcast
10:55 PM 33.6 °F 27.5 °F 28.9 °F 83% 30.05 in 10.0 mi NNW 6.9 mph - N/A   Overcast
11:15 PM 33.4 °F 28.1 °F 28.8 °F 83% 30.05 in 10.0 mi NW 5.8 mph - N/A   Overcast
11:35 PM 33.4 °F 27.3 °F 26.6 °F 76% 30.06 in 10.0 mi NW 6.9 mph - N/A   Overcast
11:55 PM 33.3 °F 25.7 °F 27.0 °F 78% 30.06 in 10.0 mi NNW 9.2 mph - N/A   Overcast